TimeEDT,TemperatureF,Dew PointF,Humidity,Sea Level PressureIn,VisibilityMPH,Wind Direction,Wind SpeedMPH,Gust SpeedMPH,PrecipitationIn,Events,Conditions,WindDirDegrees,DateUTC
12:56 AM,57.9,45.0,62,30.09,10.0,SSW,6.9,-,N/A,,Mostly Cloudy,210,2013-04-03 04:56:00
1:56 AM,57.0,46.0,67,30.09,10.0,Calm,Calm,-,N/A,,Mostly Cloudy,0,2013-04-03 05:56:00
2:56 AM,59.0,39.9,49,30.08,10.0,North,8.1,16.1,N/A,,Partly Cloudy,350,2013-04-03 06:56:00
3:56 AM,55.9,39.9,55,30.09,10.0,North,5.8,-,N/A,,Partly Cloudy,360,2013-04-03 07:56:00
4:56 AM,55.9,28.0,34,30.10,10.0,NNE,8.1,17.3,N/A,,Overcast,30,2013-04-03 08:56:00
5:56 AM,55.0,23.0,29,30.12,10.0,NNE,6.9,-,N/A,,Scattered Clouds,30,2013-04-03 09:56:00
6:56 AM,54.0,24.1,31,30.15,10.0,NE,5.8,-,N/A,,Partly Cloudy,40,2013-04-03 10:56:00
7:56 AM,54.0,25.0,33,30.20,10.0,NE,11.5,-,N/A,,Mostly Cloudy,50,2013-04-03 11:56:00
8:56 AM,54.0,23.0,30,30.21,10.0,NE,10.4,19.6,N/A,,Mostly Cloudy,40,2013-04-03 12:56:00
9:56 AM,55.0,19.9,25,30.22,10.0,NE,10.4,19.6,N/A,,Mostly Cloudy,50,2013-04-03 13:56:00
10:56 AM,57.0,19.9,24,30.23,10.0,NE,11.5,-,N/A,,Mostly Cloudy,50,2013-04-03 14:56:00
11:56 AM,57.9,21.0,24,30.24,10.0,NE,11.5,17.3,N/A,,Mostly Cloudy,50,2013-04-03 15:56:00
12:56 PM,60.1,23.0,24,30.22,10.0,East,11.5,-,N/A,,Mostly Cloudy,90,2013-04-03 16:56:00
1:56 PM,62.1,24.1,23,30.20,10.0,NE,8.1,-,N/A,,Mostly Cloudy,50,2013-04-03 17:56:00
2:56 PM,63.0,26.1,25,30.18,10.0,ENE,9.2,-,N/A,,Mostly Cloudy,60,2013-04-03 18:56:00
3:56 PM,63.0,26.1,25,30.18,10.0,NE,6.9,-,N/A,,Mostly Cloudy,40,2013-04-03 19:56:00
4:56 PM,64.0,28.0,26,30.18,10.0,NE,5.8,-,N/A,,Mostly Cloudy,50,2013-04-03 20:56:00
5:56 PM,63.0,27.0,26,30.17,10.0,NE,8.1,-,N/A,,Mostly Cloudy,50,2013-04-03 21:56:00
6:56 PM,62.1,27.0,26,30.18,10.0,East,6.9,-,N/A,,Mostly Cloudy,80,2013-04-03 22:56:00
7:56 PM,60.1,30.9,33,30.19,10.0,East,6.9,-,N/A,,Mostly Cloudy,90,2013-04-03 23:56:00
8:56 PM,59.0,30.9,35,30.20,10.0,East,8.1,-,N/A,,Overcast,90,2013-04-04 00:56:00
9:56 PM,57.9,30.9,36,30.22,10.0,East,6.9,-,0.00,,Overcast,90,2013-04-04 01:56:00
10:56 PM,57.0,34.0,42,30.25,10.0,ENE,4.6,-,0.00,Rain,Light Rain,70,2013-04-04 02:56:00
11:56 PM,54.0,41.0,62,30.23,10.0,East,5.8,-,0.00,Rain,Light Rain,100,2013-04-04 03:56:00